www.pogodaiklimat.ru

Погода и климат >> Архив погоды >> Аргентина >> Mendoza


ПОГОДА в Mendoza

  • Прогноз погоды в Mendoza
  • Монитор погоды в Mendoza
  • Климат города

АРХИВ ПОГОДЫ в Mendoza

Время (UTC), дата Ветер
(напр.,м/с)
 
Видим.   Явления Облачность Т
(С)
Тd
(С)
f
(%)
Тe
(С)
Тes
(С)
Комфортность P
(гПа)
Po
(гПа)
Тmin
(С)
Tmax
(С)
R
(мм)
R24
(мм)
S
(см)
18 9.08 ЮВ 2 15 км 8/8 1200 м
[Sc]
+15.8 +6.8 55 +16 +18 1005.6 925.8
21 9.08 Ю 5 15 км 6/1 1500 м
[Cu hum Ac As Cs]
+16.8 +5.6 48 +16 +16 1005.2 925.6
03 10.08 ЮЗ 2 15 км 9/5 1350 м
[Sc Ac As]
+12.6 +6.1 65 +12 +12 1008.0 928.0
06 10.08 ЮВ 3 15 км 9/9 1350 м
[Sc]
+12.6 +8.3 75 +11 +11 1007.9 928.1
09 10.08 ЮВ 3 15 км 10/10 1350 м
[Sc]
+12.6 +6.5 66 +11 +11 1007.6 928.0
12 10.08 Ю 5 10 км дымка 10/10 900 м
[Sc]
+12.1 +6.9 70 +10 +10 1010.8 930.5 +11.7 +14.2
15 10.08 ЮВ 5 15 км 9/8 1200 м
[Sc Ac As]
+13.1 +5.7 61 +11 +12 1012.4 931.8
18 10.08 Ю 4 15 км 9/9 1200 м
[Cu Sc]
+14.5 +4.5 51 +14 +14 1009.1 929.0
21 10.08 Ю 3 15 км 9/6 1200 м
[Sc Ac As Cs]
+14.3 +5.3 55 +14 +14 1009.0 928.9
00 11.08 ЮЗ 2 15 км 3/0
[Ac As Cs]
+12.0 +4.6 61 +11 +11 1009.6 929.0 +11.9 +15.1
03 11.08 штиль 0 15 км 8/5 1200 м
[Sc Ac As Cs]
+9.0 +4.7 74 +8 +8 1011.3 930.4
06 11.08 Ю 3 15 км 3/0
[Ac As Cs]
+9.5 +4.0 69 +8 +8 1009.6 929.0
09 11.08 Ю 2 15 км ясно +8.0 +4.2 77 +6 +6 1008.6 928.0
12 11.08 ЮЗ 2 15 км 9/6 1500 м
[Sc Ac As]
+8.4 +4.0 74 +7 +7 1010.6 929.4 +7.2 +12.0
15 11.08 Ю 7 15 км 9/8 900 м
[Sc Ac As]
+11.4 +4.8 64 +8 +9 1012.5 931.3
18 11.08 ЮВ 7 15 км {морось} 9/8 750 м
[Sc Ac As Cs]
+13.4 +4.1 53 +11 +12 1011.2 930.4 0.0
21 11.08 Ю 3 15 км {дождь} 9/9 750 м
[Sc]
+10.6 +6.7 77 +9 +9 1013.4 931.8
00 12.08 штиль 0 50 км в посл. час переохл. осадки {дождь, морось} ?/? +9.6 +5.8 77 +9 +9 1015.9 934.1 +8.4 +14.5 2
03 12.08 Ю 3 8000 м дождь {морось} 10/10 1050 м
[Sc]
+8.4 +5.4 81 +6 +6 1018.3 936.5
06 12.08 Ю 4 15 км {дождь, морось} 10/9 1050 м
[Sc Ac As]
+8.0 +3.0 71 +5 +5 1017.5 936.0 1
09 12.08 Ю 4 10 км дождь {морось} 10/8 1050 м
[Sc As op]
+6.2 +4.4 88 +3 +3 1019.0 936.8
12 12.08 СЗ 3 15 км {дождь, морось} 9/6 1200 м
[Sc Ac As]
+6.9 +4.0 82 +4 +4 1019.9 937.6 +5.7 +10.0 2
15 12.08 С 4 15 км 8/8 1350 м
[Sc]
+10.9 +4.7 66 +9 +10 1021.0 939.0
18 12.08 С 6 15 км 3/3 1350 м
[Sc]
+14.1 +2.9 47 +12 +15 1016.8 935.4
21 12.08 С 5 15 км 3/3 1500 м
[Sc]
+13.7 +1.4 43 +12 +12 1016.2 934.6
00 13.08 СЗ 2 15 км 1/1 1500 м
[Sc]
+8.6 +2.7 66 +7 +7 1018.6 936.2 +6.9 +14.2
03 13.08 З 2 15 км ясно +6.5 +2.3 75 +4 +4 1018.4 936.2
06 13.08 В 1 7000 м дымка ясно +3.3 +1.6 89 +2 +2 1016.9 934.9
09 13.08 ЮЗ 2 7000 м дымка ясно +3.6 +1.6 87 +1 +1 1014.8 933.0
12 13.08 штиль 0 9000 м дымка 5/0
[Ac As Ci sp]
+1.8 +1.0 94 +1 +1 1014.6 931.8 +1.2 +8.6
15 13.08 В 2 15 км 4/0
[Ac lent Cs]
+11.3 +1.5 51 +10 +17 1012.2 930.6
18 13.08 С 3 15 км 1/1 1500 м
[Cu hum Ac As]
+15.3 -0.3 34 +15 +22 1009.2 928.0
21 13.08 СЗ 2 15 км 1/1 1500 м
[Sc diur, vesp Ac As]
+17.0 -0.4 31 +18 +19 1008.8 927.8
00 14.08 штиль 0 15 км ясно +10.5 +3.5 62 +10 +10 1011.1 928.9 +1.8 +18.0
03 14.08 Ю 2 15 км ясно +9.0 +1.5 59 +8 +8 1011.7 930.5
06 14.08 Ю 3 15 км ясно +7.5 +0.1 59 +5 +5 1011.8 931.0
09 14.08 З 2 15 км ясно +6.5 -1.2 58 +5 +5 1010.6 930.0
12 14.08 ЮЗ 2 15 км ясно +5.0 +0.5 73 +3 +4 1013.1 931.2 +4.2 +11.2
15 14.08 ЮВ 3 15 км ясно +14.2 -0.8 36 +14 +22 1013.2 932.2
18 14.08 ЮВ 5 15 км 1/0
[Cs]
+20.8 -5.1 17 +20 +25 1011.5 934.1
21 14.08 Ю 1 15 км 1/0
[Cs]
+21.6 -4.1 17 +21 +22 комфорт 1011.3 931.2
00 15.08 Ю 2 15 км ясно +13.7 -0.2 38 +14 +14 1014.4 932.8 +5.0 +22.0
03 15.08 ЮЗ 3 15 км ясно +10.1 -0.3 48 +9 +9 1013.8 933.0
06 15.08 ЮЗ 2 15 км ясно +8.4 -1.4 50 +7 +7 1012.4 932.4
09 15.08 Ю 2 15 км ясно +7.9 -4.4 41 +7 +7 1011.6 931.7
12 15.08 штиль 0 15 км 4/0
[Ac lent Cc]
+4.8 +0.3 73 +4 +5 1014.4 932.8 +3.2 +13.7
15 15.08 ЮВ 4 15 км 5/0
[Ac lent Cc]
+17.8 -4.8 21 +18 +22 1013.8 933.4
18 15.08 ЮВ 5 15 км 9/0
[Ac lent Cc]
+20.4 -3.3 20 +20 +23 1013.0 932.9
21 15.08 ЮВ 5 15 км 4/0
[Ac As]
+20.8 -1.6 22 +21 +21 комфорт 1016.0 935.6
00 16.08 Ю 3 15 км ясно +15.4 -0.8 33 +15 +15 1022.2 940.2 +4.8 +22.0
03 16.08 Ю 3 15 км ясно +12.8 -4.9 29 +12 +12 1024.3 943.4
06 16.08 ЮЗ 2 15 км ясно +9.6 -2.0 44 +9 +9 1024.4 943.4
09 16.08 штиль 0 15 км ясно +5.8 -0.9 62 +5 +5 1024.0 941.4
12 16.08 ЮЗ 1 15 км ясно +6.1 +0.1 65 +5 +6 1023.6 941.7 +4.1 +15.9
15 16.08 СВ 2 15 км ясно +16.1 -5.0 23 +17 +26 1021.9 941.0

 

Местоположение метеостанции Mendoza (Аргентина): широта -32.83 долгота -68.78 высота над уровнем моря 704 м.

В архиве по умолчанию представлена погода в Mendoza за последнюю неделю. Архивные данные за месяц целиком и за предыдущие месяцы, начиная с января 2011 года, Вы можете получить, выбрав интересующий диапазон дат из раскрывающегося списка и нажав кнопку "Ввод!".

Внимание! Время в таблицах - всемирное. Для получения местного времени необходимо прибавить поправку, которая в Mendoza равна -3 ч.

Смотрите также архив погоды в соседних городах и на ближайших метеорологических станциях:

Погода в San Martin (Аргентина) (44 км)
Погода в San Juan (Аргентина) (163 км)
Погода в Santiago (Чили) (189 км)
Погода в Pudahuel (Чили) (196 км)
Погода в San Rafael (Аргентина) (198 км)
Погода в San Luis (Аргентина) (232 км)
Погода в Punta Angeles (Чили) (268 км)
Погода в San Antonio (Чили) (275 км)
Погода в Santo Domingo (Чили) (279 км)
Погода в Malargue (Аргентина) (306 км)

Пояснения к столбцам:

Ветер - указаны скорость ветра в м/с - средняя за 10 мин, порывы в срок и между сроками (в фигурных скобках) и направление, откуда дует ветер: С - северный, СВ - северо-восточный, В - восточный, ЮВ - юго-восточный, Ю - южный, ЮЗ - юго-западный, З - западный, СЗ - северо-западный.
Видимость - горизонтальная дальность видимости в метрах или километрах. При видимости от 1 до 10 км при отсутствии осадков обычно наблюдается дымка, при ухудшении видимости до 1 км и менее - туман. В сухую погоду видимость может ухудшаться дымом, пылью или мглою.
Явления - указаны атмосферные явления, наблюдавшиеся в срок или в последний час перед сроком; фигурными скобками обозначены явления, наблюдавшиеся между сроками (за 1-3 часа до срока); квадратными скобками обозначены град или гололедные отложения с указанием их диаметра в мм.
Облачность - указаны через наклонную черту общая и нижняя облачность в баллах и высота нижней границы облаков в метрах; квадратными скобками обозначены формы облаков: Ci - перистые, Cs - перисто-слоистые, Cc - перисто-кучевые, Ac - высококучевые, As - высокослоистые, Sc - слоисто-кучевые, Ns - слоисто-дождевые, Cu - кучевые, Cb - кучево-дождевые. Подробнее классификацию облаков см. в Атласе облаков (PDF).
T - Температура воздуха - температура, измеренная на высоте 2 м над землей.
Td - Температура точки росы - температура, при понижении до которой содержащийся в воздухе водяной пар достигнет насыщения.
f - Относительная влажность воздуха - влажноcть воздуха, измеренная на высоте 2 м над землей.
Te - Эффективная температура - температура, которую ощущает одетый по сезону человек в тени. Характеристика душности погоды. При расчете учитывается влияние влажности воздуха и скорости ветра на теплоощущения человека.
Tes - Эффективная температура на солнце - температура, которую ощущает человек, с поправкой на солнечный нагрев. Характеристика знойности погоды. Зависит от высоты солнца над горизонтом, облачности и скорости ветра. Ночью, в пасмурную погоду, а также при ветре 12 м/с и более поправка равна нулю.
P - Атмосферное давление - приведенное к уровню моря атмосферное давление.
Po - Атмосферное давление - измеренное на уровне метеостанции атмосферное давление.
Tmin - Минимальная температура - минимум температуры воздуха на высоте 2 м над землей.
Tmax - Максимальная температура - максимум температуры воздуха на высоте 2 м над землей.
R - Количество осадков - Количество выпавших осадков за период времени, мм. При наведении курсора мыши на число - период времени, за который выпало указанное количество осадков.
R24 - Количество осадков - Количество выпавших осадков за 24 часа, мм.
S - Снежный покров - Высота снежного покрова, см. При наведении курсора мыши на число - состояние снежного покрова и степень покрытия местности в баллах.